Погода в Дорохово

Россия / Московская область     55°33′03″N   36°22′34″E
темп.,
°C
ветер,
м/с
пор.,
м/с
влажн.,
%
обл.,
%
осадки,
мм/ч
давл.,
гПа
погр.,
м
17 мая, вт
вт1700:00+4зсз41192100 0.0 1008421
03:00+4зсз41196100 1.3 1006967
06:00+6сз51294100 1.8 1005987
09:00+5сз61196100 6.1 1005932
12:00+6сз61296100 5.5 1006886
15:00+7сз51195100 5.6 1006823
18:00+7сз51196100 0.1 1006625
21:00+7сз5129577 0.1 1007631
18 мая, ср
ср1800:00+6ссз4119726 0.0 1008422
03:00+4ссз4119834 0.0 1009411
06:00+4с4129447 0.0 1011504
09:00+10с59625 0.0 10131172
12:00+13с574857 0.0 10131887
15:00+13ссз6750100 0.0 10141969
18:00+10ссз586854 0.1 10161288
21:00+5зсз258397 0.1 1017100
19 мая, чт
чт1900:00+4з249096 0.0 101880
03:00+6з4127672 0.0 1016434
06:00+6з4127791 0.0 1015501
09:00+9ссз5772100 0.1 10161088
12:00+9сз477595 0.5 10171105
15:00+11сз586558 1.1 10171370
18:00+12сз38565 0.2 10171806
21:00+6зсз248321 0.3 101871
20 мая, пт
пт2000:00+3зсз118644 0.0 101910
03:00+3сз2282100 0.0 102032
06:00+4сз267312 0.0 1020164
09:00+10ссз235253 0.0 1020736
12:00+14сз2439100 0.0 10181690
15:00+14зюз1243100 0.0 10161542
18:00+11юз3574100 0.1 1015271
21:00+8ю2593100 0.1 1014172
21 мая, сб
сб2100:00+8юв3895100 0.3 1011403
03:00+8вюв4997100 2.4 1009494
06:00+7в41195100 1.8 1008597
09:00+7в41095100 1.9 1008600
12:00+12в467263 0.2 10081214
15:00+13в4656100 0.3 10081384
18:00+11юв3673100 0.2 1007398
21:00+9вюв2884100 0.2 1007260